Content
SEND FEEDBACK

Daily
Averages
Monthly
Summary
Switzerland

GENEVA, SWITZERLAND


Home > Europe > Switzerland
Elevation: 1364 feet     Latitude: 46 15N     Longitude: 006 08E

WEATHER
 
SELECT A DAY
Number of Records: 305,246;   Date Range: 7/1/96 - 7/7/14
 
SHARE

PRINT THIS DATA

[ ← Previous Day ]
WEATHER ALMANAC - APRIL 30, 2013
[ Next Day → ]
[ °C ]   °F
Weather ElementAverageHighLow
Temperature53.7 °F59 °F (2:50 pm)50 °F (12:20 am)
Dewpoint49.6 °F51.8 °F (5:50 pm)48 °F (1:00 am)
Humidity85.3 %100 % (1:50 am)65 % (3:00 pm)
Barometer30.02 in30.05 in (1:00 am)29.98 in (5:50 pm)
Wind Speed4.6 mph10.4 mph (3:00 pm)
Weather ElementAverage
Visibility4 mi
Wind DirectionENE (81.7 °)

Weather ElementTotal
Precipitation---
Heating Degree Days10.5 (Base 65)
Growing Degree Days4.5 (Base 50)
Averaged from 66 records on April 30, 2013
WEATHER CONDITIONS BREAKOUT
WIND DIRECTION BREAKOUT
WEATHER BY HOUR - APRIL 30, 2013
[ °C ]   °F
Local TimeTemperatureDewpointHumidityBarometerVisibilityWind DirectionWind SpeedGust SpeedPrecipitationEventsConditions
12:20 AM50.0 °F48.2 °F94 %30.04 in3.1 miVariable1.2 mphMostly Cloudy
12:50 AM50.0 °F48.2 °F94 %30.04 in3.1 miVariable1.2 mphMostly Cloudy
1:00 AM50.0 °F48.0 °F91 %30.05 inNNW (330°)1.2 mph
1:20 AM50.0 °F48.2 °F94 %30.04 in3.1 miVariable1.2 mphMostly Cloudy
1:50 AM50.0 °F50.0 °F100 %30.04 in3.1 miVariable1.2 mphMostly Cloudy
2:00 AM50.0 °F48.0 °F91 %30.05 in3.0 miNE (50°)1.2 mphMist
2:20 AM50.0 °F50.0 °F100 %30.01 in3.1 miCalmMostly Cloudy
2:50 AM50.0 °F48.2 °F94 %30.01 in3.1 miWNW (290°)1.2 mphMostly Cloudy
3:00 AM50.0 °F49.0 °F93 %30.03 inWest (260°)1.2 mph
3:50 AM50.0 °F50.0 °F100 %30.01 in3.1 miCalmMostly Cloudy
4:00 AM50.0 °F48.0 °F92 %30.03 inSSW (210°)2.3 mph
4:20 AM50.0 °F50.0 °F100 %30.01 in3.1 miWSW (250°)2.3 mphOvercast
4:50 AM50.0 °F50.0 °F100 %30.01 in3.1 miVariable1.2 mphOvercast
5:20 AM50.0 °F50.0 °F100 %30.01 in3.1 miCalmOvercast
5:50 AM50.0 °F50.0 °F100 %30.01 in3.1 miCalmOvercast
6:00 AM50.0 °F48.0 °F92 %30.03 inWest (260°)2.3 mph
6:20 AM50.0 °F50.0 °F100 %30.01 in2.8 miVariable1.2 mphMostly Cloudy
6:50 AM50.0 °F50.0 °F100 %30.01 in2.8 miNW (310°)1.2 mphMostly Cloudy
7:00 AM50.0 °F49.0 °F94 %30.03 inNNW (340°)1.2 mph
7:20 AM50.0 °F50.0 °F100 %30.01 in2.8 miCalmMostly Cloudy
7:50 AM50.0 °F50.0 °F100 %30.01 in2.8 miCalmRainLight Rain Showers
8:00 AM51.0 °F49.0 °F92 %30.03 in3.0 miNorth (350°)2.3 mphRainLight Rain Showers
8:20 AM50.0 °F50.0 °F100 %30.01 in2.8 miCalmRainLight Rain Showers
8:50 AM51.8 °F50.0 °F94 %30.04 in3.1 miCalmMostly Cloudy
9:00 AM52.0 °F49.0 °F84 %30.04 inNNW (340°)1.2 mph
9:20 AM51.8 °F50.0 °F94 %30.04 in3.7 miVariable1.2 mphMostly Cloudy
9:50 AM51.8 °F50.0 °F94 %30.04 in3.7 miNE (40°)5.8 mphMostly Cloudy
10:00 AM52.0 °F48.0 °F83 %30.04 inNNE (30°)5.8 mph
10:20 AM51.8 °F50.0 °F94 %30.04 in3.7 miNE (40°)4.6 mphMostly Cloudy
10:50 AM53.6 °F50.0 °F88 %30.04 in3.7 miNE (50°)5.8 mphMostly Cloudy
11:20 AM51.8 °F48.2 °F88 %30.04 in3.7 miNE (50°)8.1 mphMostly Cloudy
11:50 AM53.6 °F50.0 °F88 %30.04 in3.7 miNE (50°)5.8 mphRainLight Rain Showers
12:00 PM53.0 °F49.0 °F80 %30.05 inNNE (30°)4.6 mph
12:20 PM53.6 °F50.0 °F88 %30.04 in3.7 miEast (80°)4.6 mphRainLight Rain
12:50 PM53.6 °F50.0 °F88 %30.04 in3.7 miENE (70°)4.6 mphMostly Cloudy
1:00 PM54.0 °F48.0 °F74 %30.05 inENE (60°)4.6 mph
1:20 PM55.4 °F50.0 °F82 %30.04 in4.3 miNNE (30°)4.6 mphRainLight Rain Showers
1:50 PM55.4 °F50.0 °F82 %30.04 in4.3 miNE (40°)6.9 mphRainLight Rain Showers
2:00 PM56.0 °F48.0 °F68 %30.03 in4.0 miENE (60°)9.2 mphRainLight Rain Showers
2:20 PM57.2 °F50.0 °F77 %30.04 in5.0 miNE (40°)8.1 mphMostly Cloudy
2:50 PM59.0 °F50.0 °F72 %30.04 in6.2 miNNE (30°)8.1 mphMostly Cloudy
3:00 PM58.0 °F49.0 °F65 %30.02 inNE (50°)10.4 mph
3:20 PM57.2 °F50.0 °F77 %30.01 in5.6 miNE (40°)9.2 mphMostly Cloudy
3:50 PM57.2 °F50.0 °F77 %30.01 in5.0 miNE (50°)9.2 mphMostly Cloudy
4:00 PM58.0 °F49.0 °F65 %30.00 inNE (40°)10.4 mph
4:20 PM59.0 °F50.0 °F72 %30.01 in5.0 miNE (50°)8.1 mphMostly Cloudy
4:50 PM59.0 °F50.0 °F72 %30.01 in5.0 miNNE (20°)4.6 mphMostly Cloudy
5:20 PM57.2 °F50.0 °F77 %30.01 in5.0 miNE (40°)4.6 mphMostly Cloudy
5:50 PM59.0 °F51.8 °F77 %29.98 in5.0 miNE (40°)8.1 mphScattered Clouds
6:00 PM58.0 °F50.0 °F67 %29.99 inNorth (10°)5.8 mph
6:20 PM59.0 °F51.8 °F77 %30.01 in5.0 miNorth (360°)4.6 mphScattered Clouds
6:50 PM59.0 °F51.8 °F77 %30.01 in5.0 miNorth (360°)4.6 mphScattered Clouds
7:00 PM59.0 °F50.0 °F65 %29.99 inNNE (20°)8.1 mph
7:20 PM59.0 °F50.0 °F72 %30.01 in5.0 miNE (40°)5.8 mphScattered Clouds
7:50 PM57.2 °F50.0 °F77 %30.01 in5.0 miNE (40°)6.9 mphScattered Clouds
8:00 PM57.0 °F49.0 °F68 %30.00 in5.0 miNE (40°)8.1 mphMist
8:20 PM57.2 °F50.0 °F77 %30.01 in5.0 miNE (40°)6.9 mphScattered Clouds
8:50 PM57.2 °F50.0 °F77 %30.01 in5.0 miENE (60°)9.2 mphMostly Cloudy
9:00 PM56.0 °F49.0 °F71 %30.01 inENE (60°)10.4 mph
9:20 PM55.4 °F50.0 °F82 %30.01 in4.3 miENE (60°)10.4 mphOvercast
9:50 PM55.4 °F50.0 °F82 %30.04 in5.0 miNE (50°)9.2 mphOvercast
10:00 PM55.0 °F48.0 °F71 %30.03 inNNE (30°)8.1 mph
10:20 PM53.6 °F50.0 °F88 %30.04 in5.0 miNE (50°)6.9 mphMostly Cloudy
10:50 PM55.4 °F50.0 °F82 %30.04 in4.3 miNE (40°)5.8 mphMostly Cloudy
11:20 PM53.6 °F50.0 °F88 %30.04 in4.3 miNE (50°)5.8 mphMostly Cloudy
11:50 PM53.6 °F50.0 °F88 %30.04 in4.3 miENE (60°)6.9 mphMostly Cloudy
Hourly data recorded from LSGG, located miles away from Geneva, Switzerland







STORIES FROM OUR PARTNERS